DateTimeUTC,F1_A11,F1_S11,BsB_S11,BsG_S11,BsR_S11,BbsB_S11,BbsG_S11,BbsR_S11,BaB_A11,BaG_A11,BaR_A11,Tu_S11,T_S11,Uu_S11,U_S11,P_S11,T1_A11
2021-05-18T22:00:00Z,00000200,21000000,,,,,,,0000.31,-000.45,-000.47,17.2,24.2,01.2,00.8,0679.2,30.9
2021-05-18T22:01:00Z,00000200,21000000,,,,,,,-000.09,0000.40,0000.43,17.2,24.2,01.2,00.8,0679.2,30.9
2021-05-18T22:02:00Z,00000200,21000000,,,,,,,0000.02,-000.14,-000.22,17.2,24.2,01.2,00.8,0679.2,30.9
2021-05-18T22:03:00Z,00000200,61000000,,,,,,,0000.36,0000.28,0000.69,17.2,24.2,01.2,00.8,0679.2,30.9
2021-05-18T22:04:00Z,00000200,41000000,0001.59,0000.71,0000.22,0000.47,0000.50,-000.02,0000.49,0000.47,0000.09,17.3,24.0,01.5,01.0,0680.1,30.9
2021-05-18T22:05:00Z,00000200,01000000,0001.80,0000.95,0000.44,-000.32,0000.31,0000.40,0000.35,0000.07,0000.21,17.3,23.9,01.6,01.0,0680.1,30.9
2021-05-18T22:06:00Z,00000200,01000000,0001.38,0000.71,0000.53,0000.06,0000.17,-000.01,0000.77,0000.80,0000.66,17.3,23.9,01.4,01.0,0680.1,30.9
2021-05-18T22:07:00Z,00000200,01000000,0001.54,0000.99,0000.61,0000.51,0000.24,0000.46,0000.61,0000.55,0000.21,17.3,23.9,01.5,01.0,0680.1,30.9
2021-05-18T22:08:00Z,00000200,01000000,0001.50,0000.83,0000.57,0000.21,0000.36,0000.14,0000.30,0000.68,0000.46,17.3,23.9,01.6,01.0,0680.1,30.9
2021-05-18T22:09:00Z,00000200,01000000,0001.47,0000.94,0000.57,0000.10,0000.17,0000.03,0000.51,0000.43,0000.60,17.3,23.9,01.6,01.1,0680.2,30.9
2021-05-18T22:10:00Z,00000200,01000000,0001.09,0000.86,0000.41,0000.39,0000.48,0000.10,0000.67,0000.59,0000.38,17.3,23.9,01.7,01.2,0680.1,30.9
2021-05-18T22:11:00Z,00000200,01000000,0001.40,0001.04,0000.39,0000.38,0000.32,0000.19,0001.07,0000.64,0000.81,17.3,23.9,02.0,01.3,0680.2,30.9
2021-05-18T22:12:00Z,00000200,00000000,0000.99,0000.79,0000.09,-000.14,0000.40,-000.37,0000.20,0000.62,0000.57,17.3,23.9,02.1,01.4,0680.1,30.9
2021-05-18T22:13:00Z,00000200,00000000,0001.12,0001.07,0000.43,-000.16,0000.36,0000.03,0000.31,0000.34,-000.48,17.3,23.9,02.1,01.4,0680.1,30.9
2021-05-18T22:14:00Z,00000200,00000000,0001.16,0000.94,0000.56,0000.25,0000.15,0000.04,0000.52,0000.48,0000.61,17.3,23.9,02.0,01.3,0680.2,30.9
2021-05-18T22:15:00Z,00000200,00000000,0000.79,0000.65,0000.39,-000.61,0000.26,-000.00,0000.16,0000.04,0000.05,17.3,23.8,02.2,01.5,0680.1,30.9
2021-05-18T22:16:00Z,00000200,00000000,0001.05,0000.60,0000.72,0000.37,0000.42,-000.07,0000.39,0000.59,0000.20,17.3,23.8,02.3,01.5,0680.1,30.9
2021-05-18T22:17:00Z,00000200,00000000,0001.10,0000.67,0000.80,0000.06,0000.31,0000.05,0000.56,0000.08,0000.47,17.3,23.8,02.2,01.5,0680.1,30.9
2021-05-18T22:18:00Z,00000200,01000000,0001.92,0000.77,0000.51,0000.80,0000.23,-000.27,-000.04,-000.08,-000.17,17.3,23.8,02.0,01.3,0680.1,30.9
2021-05-18T22:19:00Z,00000200,01000000,0001.34,0000.87,0000.40,-000.12,0000.33,0000.09,0000.10,0000.30,-000.01,17.3,23.8,01.8,01.2,0680.1,30.9
2021-05-18T22:20:00Z,00000200,01000000,0001.45,0001.06,0000.69,0000.67,0000.11,0000.24,0000.71,0000.69,0000.31,17.3,23.8,01.8,01.2,0680.1,30.9
2021-05-18T22:21:00Z,00000200,01000000,0001.68,0000.83,0000.70,-000.31,-000.00,0000.18,0000.25,0000.35,0000.60,17.3,23.8,01.7,01.2,0680.1,30.9
2021-05-18T22:22:00Z,00000200,01000000,0001.23,0000.61,0000.36,0000.20,0000.42,0000.25,0000.40,0000.09,0000.05,17.3,23.8,01.7,01.2,0680.1,30.9
2021-05-18T22:23:00Z,00000200,01000000,0001.91,0000.85,0000.53,0000.36,0000.28,0000.14,0000.80,0000.86,0000.43,17.2,23.8,01.6,01.1,0680.1,30.9
2021-05-18T22:24:00Z,00000200,01000000,0001.77,0000.87,0000.71,0000.34,0000.45,0000.07,0000.34,0000.03,0000.19,17.3,23.8,01.8,01.2,0680.1,30.9
2021-05-18T22:25:00Z,00000200,01000000,0001.07,0001.06,0000.63,0000.43,0000.34,0000.22,0000.50,0000.39,0000.33,17.2,23.8,01.8,01.2,0680.1,30.9
2021-05-18T22:26:00Z,00000200,01000000,0001.64,0000.85,0000.57,0000.31,0000.10,0000.10,0000.23,0000.79,0000.24,17.2,23.8,01.7,01.1,0680.1,30.9
2021-05-18T22:27:00Z,00000200,01000000,0001.36,0000.94,0000.32,0000.13,0000.39,0000.12,0000.63,0000.38,0000.74,17.2,23.8,01.7,01.1,0680.1,30.9
2021-05-18T22:28:00Z,00000200,01000000,0001.21,0000.76,0000.39,0000.44,0000.24,-000.03,0000.77,0000.45,0000.47,17.2,23.8,01.9,01.3,0680.0,30.9
2021-05-18T22:29:00Z,00000200,00000000,0001.22,0000.87,0000.57,0000.02,0000.25,-000.10,0000.32,0000.38,0000.15,17.2,23.8,01.9,01.3,0680.0,30.9
2021-05-18T22:30:00Z,00000200,01000000,0001.01,0000.80,0000.42,0001.04,0000.44,-000.05,0000.15,-000.10,0000.14,17.2,23.7,01.9,01.3,0680.0,30.9
2021-05-18T22:31:00Z,00000200,01000000,0000.97,0000.88,0000.58,0000.23,0000.42,0000.03,0000.36,0000.54,0000.48,17.2,23.8,01.8,01.2,0680.0,30.9
2021-05-18T22:32:00Z,00000200,01000000,0001.00,0001.06,0000.56,-000.10,0000.29,-000.21,0000.71,0000.39,-000.18,17.2,23.7,01.8,01.2,0680.0,30.9
2021-05-18T22:33:00Z,00000200,01000000,0000.96,0000.73,0000.59,-000.06,0000.45,0000.09,0000.58,0000.31,0000.31,17.2,23.7,01.7,01.1,0680.0,30.9
2021-05-18T22:34:00Z,00000200,01000000,0001.30,0001.15,0000.51,0000.52,0000.24,0000.06,0000.08,0000.79,0000.44,17.2,23.7,01.5,01.0,0680.1,30.9
2021-05-18T22:35:00Z,00000200,01000000,0000.88,0000.83,0000.46,-000.49,0000.17,0000.08,0000.13,0000.41,0000.23,17.2,23.7,01.6,01.1,0680.1,30.9
2021-05-18T22:36:00Z,00000200,01000000,0001.82,0000.75,0000.40,0000.28,0000.31,0000.11,0000.78,0000.14,0000.32,17.2,23.7,01.6,01.1,0680.1,30.9
2021-05-18T22:37:00Z,00000200,01000000,0001.49,0001.00,0000.57,0000.09,0000.15,-000.12,0000.37,0000.36,0000.09,17.2,23.7,01.6,01.1,0680.0,30.9
2021-05-18T22:38:00Z,00000200,01000000,0000.86,0000.60,0000.46,0000.09,0000.14,0000.01,0000.19,0000.23,0000.04,17.1,23.7,01.7,01.1,0680.1,30.9
2021-05-18T22:39:00Z,00000200,01000000,0000.69,0000.85,0000.51,-000.29,0000.27,-000.05,0000.53,0000.20,0000.83,17.2,23.7,01.6,01.1,0680.0,30.9
2021-05-18T22:40:00Z,00000200,01000000,0000.86,0000.99,0000.43,0000.17,0000.51,-000.03,0000.31,0000.69,0000.44,17.1,23.7,01.6,01.1,0680.0,30.9
2021-05-18T22:41:00Z,00000200,01000000,0001.94,0000.88,0000.81,0000.20,0000.26,0000.21,0000.89,0000.52,0000.04,17.1,23.7,01.6,01.1,0680.0,30.9
2021-05-18T22:42:00Z,00000200,01000000,0001.57,0000.65,0000.59,-000.08,0000.19,-000.01,0000.59,0000.47,0000.35,17.1,23.7,01.7,01.1,0680.0,30.9
2021-05-18T22:43:00Z,00000200,01000000,0001.85,0000.90,0000.67,0000.07,0000.06,0000.32,-000.05,0000.36,0000.12,17.1,23.7,01.6,01.1,0680.0,30.9
2021-05-18T22:44:00Z,00000200,01000000,0001.58,0000.95,0000.63,0000.46,0000.46,0000.23,0000.87,0000.50,0000.87,17.1,23.7,01.6,01.1,0680.0,30.9
2021-05-18T22:45:00Z,00000200,01000000,0001.51,0000.78,0000.78,0000.25,0000.13,0000.25,0000.41,0000.38,-000.11,17.1,23.7,01.7,01.2,0680.0,30.9
2021-05-18T22:46:00Z,00000200,01000000,0001.24,0000.94,0000.57,0000.58,0000.33,-000.05,0000.53,0000.72,0000.83,17.1,23.7,01.8,01.2,0680.0,30.9
2021-05-18T22:47:00Z,00000200,01000000,0001.66,0000.82,0000.54,0000.27,0000.08,-000.03,0000.63,0000.63,0000.29,17.1,23.7,01.9,01.3,0680.0,30.9
2021-05-18T22:48:00Z,00000200,00000000,0001.22,0000.68,0000.65,0000.00,0000.35,0000.14,0000.75,0000.78,0000.62,17.1,23.7,02.0,01.3,0680.0,30.9
2021-05-18T22:49:00Z,00000200,00000000,0001.57,0000.64,0000.52,-000.11,0000.12,0000.19,0000.26,0000.04,0000.46,17.1,23.7,02.1,01.4,0680.0,30.9
2021-05-18T22:50:00Z,00000200,00000000,0001.03,0000.79,0000.34,0000.30,0000.31,0000.19,0000.62,0000.78,0000.62,17.1,23.6,02.1,01.4,0680.0,30.9
2021-05-18T22:51:00Z,00000200,00000000,0001.30,0000.40,0000.62,-000.06,0000.33,0000.38,0000.48,-000.02,0000.33,17.1,23.6,02.3,01.5,0680.0,30.9
2021-05-18T22:52:00Z,00000200,00000000,0000.65,0000.70,0000.11,0000.10,0000.18,0000.31,0000.43,0000.28,0000.30,17.1,23.6,02.4,01.6,0680.0,30.9
2021-05-18T22:53:00Z,00000200,00000000,0001.00,0000.68,0000.37,0000.04,0000.20,0000.06,0000.53,0001.12,0000.31,17.1,23.6,02.3,01.5,0679.9,30.8
2021-05-18T22:54:00Z,00000200,00000000,0001.37,0000.37,0000.23,0000.02,0000.29,-000.09,0000.10,-000.00,0000.13,17.1,23.6,02.6,01.7,0680.0,30.8
2021-05-18T22:55:00Z,00000200,00000000,0001.22,0000.26,0000.32,0000.22,0000.39,0000.16,-000.20,0000.25,0000.14,17.1,23.6,02.6,01.7,0680.0,30.9
2021-05-18T22:56:00Z,00000200,00000000,0000.18,0000.67,0000.72,-000.02,0000.25,-000.04,0000.78,0000.11,0000.37,17.1,23.6,02.5,01.7,0680.0,30.9
2021-05-18T22:57:00Z,00000200,40000000,,,,,,,-000.16,0000.06,-000.68,17.2,23.7,02.2,01.5,0680.0,30.9
2021-05-18T22:58:00Z,00000200,60000000,,,,,,,0000.08,-000.14,0000.20,16.9,23.8,02.1,01.4,0679.0,30.9
2021-05-18T22:59:00Z,00000200,20000000,,,,,,,0000.29,0000.22,0000.42,16.8,23.9,02.2,01.4,0679.0,30.8
